Theta_e
321 321 320 319 319 318 318 317 317 316 316 316 315 316 317 317 318 318 319 319 319 319 319 319 320 320 315 310 309 324 338 334 316 312 311 309 308 309 306 307 308 307 308 311 313 313 313
320 320 320 319 319 318 318 318 318 317 316 316 315 315 315 316 317 318 319 318 318 318 318 319 320 320 313 304 316 324 317 312 312 310 308 309 307 310 307 306 307 308 308 309 310 311 310
320 320 320 319 318 318 318 318 318 317 317 316 316 315 315 315 316 317 318 317 317 317 318 319 320 318 310 308 317 319 313 311 311 310 308 308 310 307 307 305 306 306 303 305 306 307 308
319 319 319 319 318 317 318 318 318 317 317 317 316 315 314 314 315 316 317 317 316 317 318 319 320 315 308 316 320 315 313 313 312 312 311 312 310 309 307 307 305 303 304 301 306 307 307
319 319 318 318 318 317 317 317 317 317 317 317 316 314 314 313 314 315 316 315 316 317 318 320 316 311 307 318 313 314 316 312 311 311 312 311 310 304 305 303 302 302 300 300 302 307 306
319 319 319 318 317 316 316 317 316 316 317 316 316 314 314 313 314 314 314 316 318 319 319 318 314 308 311 309 313 311 313 312 309 309 307 306 305 304 302 303 296 298 298 299 299 304 305
318 318 318 318 318 316 316 316 316 316 316 316 316 314 313 313 313 313 313 312 311 310 312 308 308 308 309 314 313 309 311 310 309 307 302 303 301 298 301 301 300 299 298 297 301 303 302
318 318 318 318 317 316 316 316 316 316 316 315 315 314 313 312 312 312 312 312 311 312 305 309 309 309 311 313 308 309 312 306 305 301 302 302 299 302 301 300 299 298 297 298 300 303 304
317 317 317 316 316 315 316 315 315 315 315 314 313 313 313 312 311 311 311 310 313 313 306 306 309 309 311 313 306 306 309 306 303 301 300 299 301 302 300 299 298 298 298 298 298 302 302
317 317 316 315 314 314 315 314 314 315 315 314 313 312 311 310 309 309 309 312 313 313 302 303 307 309 307 307 304 308 309 307 305 301 300 301 303 301 301 299 301 298 300 300 298 298 296
316 316 316 314 314 313 312 313 313 313 314 313 313 312 311 309 309 309 311 313 311 314 291 305 305 310 306 305 306 307 311 309 303 302 303 300 300 300 299 298 301 299 301 299 298 298 297
316 316 314 314 313 312 312 311 311 312 312 312 312 311 309 310 310 311 313 313 314 301 292 303 304 301 302 303 304 307 308 310 307 304 305 302 304 302 300 300 300 302 299 299 298 298 292
315 315 314 313 313 312 311 311 311 311 311 311 311 309 307 309 308 310 313 313 298 294 305 299 299 300 300 299 302 304 302 302 300 298 298 301 301 304 302 298 302 301 299 293 290 291 290
313 315 314 313 312 311 310 310 310 310 310 311 308 306 308 311 311 312 315 305 292 299 302 305 301 299 298 301 301 301 300 299 302 301 299 296 294 301 304 298 297 298 298 293 285 288 292
315 314 314 313 312 311 310 309 309 309 309 309 306 307 313 315 313 314 311 297 296 300 304 301 301 298 298 299 301 301 299 299 301 301 297 295 295 302 302 302 299 297 297 297 292 291 292
313 312 313 313 311 311 310 309 310 309 309 307 302 305 312 313 316 317 307 296 302 306 305 303 298 299 296 298 299 300 299 301 301 303 303 299 292 298 301 303 303 299 299 294 295 286 286
311 312 311 311 312 311 310 309 310 309 308 305 304 308 313 313 317 310 301 300 302 307 308 301 300 299 299 299 299 298 298 300 302 302 304 302 298 295 299 298 296 299 298 295 296 294 289
310 311 311 311 311 310 310 309 310 308 307 302 302 305 311 313 306 302 301 301 301 306 306 304 304 302 300 300 300 300 298 300 305 304 299 300 299 293 294 299 300 298 295 295 295 290 293
310 310 310 310 310 310 309 309 310 309 307 301 300 301 314 313 302 300 302 301 304 303 302 303 301 303 303 300 299 300 300 302 303 301 301 300 294 290 292 297 300 297 296 296 295 295 292
309 309 309 310 310 310 309 309 309 309 307 302 301 299 305 306 303 301 299 300 300 303 302 304 302 304 302 300 302 300 299 301 303 303 302 303 294 291 289 293 296 294 294 294 294 294 291
308 308 309 309 309 309 309 309 309 308 307 302 298 297 297 297 299 300 300 299 299 299 303 304 302 302 302 299 299 299 300 299 302 304 302 301 295 295 294 295 296 294 293 293 292 292 290
307 308 308 308 309 309 309 309 309 308 305 302 297 296 298 297 298 299 297 300 299 299 300 301 302 301 301 301 301 299 300 300 299 303 302 300 296 296 293 296 295 292 293 294 294 293 293
305 307 308 308 308 308 308 309 309 308 305 298 297 299 298 297 299 297 297 298 299 301 303 304 304 302 301 301 303 303 303 304 304 303 300 299 297 294 288 293 292 289 293 294 294 296 295
303 305 307 308 307 308 308 307 308 308 304 300 296 298 296 295 298 297 297 298 298 299 300 302 302 302 303 304 302 302 301 301 301 299 301 298 296 294 291 291 284 292 299 298 295 296 298
302 304 306 307 307 307 307 307 306 307 307 304 299 297 296 291 296 297 297 298 299 301 301 300 301 303 305 301 296 293 295 294 296 298 298 299 297 290 290 289 289 291 296 295 295 294 299
301 302 304 306 307 307 307 305 305 306 308 304 301 299 298 293 295 298 297 297 298 299 299 300 303 304 304 299 296 289 288 291 291 294 298 297 298 296 290 287 285 292 298 301 299 291 300
300 301 302 304 307 306 305 305 305 306 308 304 303 298 298 294 296 298 297 297 299 299 299 301 302 302 302 297 293 291 290 295 291 291 292 294 294 291 289 290 293 296 300 301 289 292 301
301 300 301 303 305 306 305 304 305 306 308 304 303 299 297 295 297 297 298 299 300 301 300 301 300 301 298 295 293 293 293 295 295 296 294 294 293 292 291 290 287 301 298 293 299 300 302
301 301 301 302 303 305 306 304 304 306 308 302 301 298 299 296 299 299 301 303 302 301 303 301 301 300 301 298 297 296 294 294 294 293 297 294 298 297 296 297 298 303 300 300 303 302 300
Wind_Speed
22 22 23 24 22 21 20 19 19 18 18 17 17 17 15 13 12 10 10 9 9 9 8 7 8 9 2 1 2 3 8 9 4 2 2 3 2 3 4 2 3 4 3 5 5 5 6
22 22 23 23 22 21 21 20 19 18 18 17 17 17 16 15 14 12 10 9 8 8 7 6 7 9 2 3 1 4 8 6 5 3 2 3 2 1 3 2 3 1 2 4 3 4 2
22 22 22 21 21 21 21 21 21 20 19 18 17 17 17 16 15 14 12 10 9 7 6 4 5 3 1 1 2 4 5 2 3 2 2 2 2 0 2 3 1 0 3 2 1 2 2
22 22 21 21 21 21 22 22 22 21 20 19 18 17 16 16 15 15 14 12 10 7 5 2 2 1 3 1 3 3 4 3 2 2 0 2 2 2 1 0 1 1 1 4 3 3 3
21 21 21 21 21 22 22 22 22 22 22 21 19 18 17 16 15 15 15 13 5 4 3 3 1 2 2 1 3 1 3 1 6 3 2 4 1 3 1 2 3 3 2 1 3 2 1
20 21 21 21 21 21 22 23 23 22 23 22 21 20 18 16 14 12 13 2 7 8 2 3 3 2 1 4 3 1 2 1 3 7 5 1 2 2 2 2 4 3 2 2 3 2 5
20 20 21 21 22 21 22 23 23 24 24 23 23 22 20 17 14 10 3 2 1 1 2 3 3 3 5 4 2 1 3 4 2 2 2 2 4 6 4 2 1 3 3 4 5 3 6
18 19 20 21 22 21 22 22 23 24 25 25 24 23 22 19 16 8 3 3 4 1 5 4 5 6 6 2 1 1 4 3 1 2 2 2 4 3 4 2 6 5 4 6 4 5 9
18 18 19 20 21 21 23 23 24 25 25 26 25 24 23 21 17 2 1 2 5 4 1 5 4 4 1 6 2 1 5 2 1 1 2 1 3 2 3 3 6 4 6 4 5 7 8
18 18 19 20 22 23 24 25 25 26 26 27 26 25 23 25 2 1 2 3 4 5 2 2 2 1 4 3 2 1 2 0 2 2 3 1 4 4 4 4 4 2 5 2 1 5 5
17 18 19 22 24 25 25 26 27 27 28 27 28 25 21 9 2 2 3 4 6 3 1 2 2 3 2 2 2 4 3 0 2 3 3 3 4 4 5 4 2 2 0 2 2 3 3
17 19 21 22 24 25 27 27 27 29 28 29 30 27 18 2 2 3 4 2 1 1 3 1 2 4 4 1 3 1 4 7 1 3 4 2 2 3 2 2 4 6 1 4 3 1 6
17 18 21 22 24 25 26 27 28 30 29 32 32 29 8 2 1 5 3 2 1 3 1 2 2 3 3 2 3 3 4 6 3 1 4 3 3 3 4 1 3 2 0 3 4 4 2
19 15 18 20 23 24 26 27 28 30 31 34 35 22 2 3 4 6 1 3 4 2 4 1 1 4 3 2 2 2 4 4 5 2 3 2 4 6 8 3 2 4 1 3 5 4 3
17 15 18 22 23 22 21 24 27 30 32 33 27 3 1 4 3 2 4 2 4 4 2 2 2 3 2 2 3 3 3 3 2 2 1 1 2 1 6 4 3 4 2 2 5 1 4
18 16 18 19 22 21 23 25 25 29 32 31 7 4 3 6 3 2 3 3 4 3 4 1 1 0 3 2 3 2 3 1 2 2 2 3 1 2 3 1 8 2 5 3 1 3 4
15 16 17 18 18 19 21 23 25 28 31 26 3 1 3 5 1 3 2 4 4 5 5 1 2 3 3 3 3 2 3 2 2 3 2 2 1 2 2 6 4 0 2 5 3 3 3
15 15 16 17 18 18 20 21 23 26 29 7 4 1 4 2 1 1 2 3 3 4 1 1 3 3 3 2 3 2 3 2 5 1 2 2 3 1 2 1 2 4 3 2 2 3 1
16 16 16 16 17 18 19 20 22 22 22 5 6 4 2 2 1 0 2 3 3 3 3 1 2 2 3 3 4 2 3 3 2 2 3 4 2 1 2 3 2 3 3 3 4 1 4
15 15 16 16 16 16 17 19 20 21 20 2 3 4 4 4 2 2 4 2 2 1 2 3 3 3 3 3 4 5 4 3 3 4 7 5 3 3 3 2 2 1 2 1 1 1 1
16 16 16 16 15 15 16 18 19 20 21 1 4 2 2 4 3 2 2 2 3 1 2 2 3 2 5 4 2 3 3 4 4 2 4 2 3 2 2 1 1 1 3 3 2 1 3
17 16 15 15 16 16 15 16 18 21 18 3 3 4 1 3 4 3 2 2 2 1 3 1 5 3 2 4 2 7 6 3 2 3 3 2 4 2 2 2 1 2 3 5 4 4 5
17 17 15 14 14 15 15 15 16 18 10 3 1 1 3 1 3 3 1 2 1 3 4 3 9 6 6 5 6 6 4 6 3 3 4 2 5 3 2 1 1 5 4 2 2 2 1
16 17 16 13 13 13 13 13 14 13 8 1 1 1 2 3 3 2 3 3 1 1 3 3 3 3 3 7 8 6 8 7 6 6 2 6 5 1 1 2 4 3 2 3 2 2 4
15 15 17 13 12 12 12 12 13 12 4 2 0 2 1 4 3 3 4 3 1 4 4 4 4 3 5 3 2 3 2 3 4 6 2 1 5 3 2 2 3 3 5 5 4 3 9
15 16 16 17 11 11 10 12 12 11 6 1 2 1 2 3 2 4 3 3 1 2 3 4 3 3 4 2 2 4 4 2 4 4 3 6 5 2 3 2 3 3 5 4 3 3 9
15 15 15 17 12 9 10 11 12 12 8 1 2 3 2 3 3 2 2 2 0 1 2 2 3 3 1 2 2 3 3 1 5 6 6 4 3 4 3 3 3 3 8 7 4 3 8
14 14 14 15 16 12 10 11 11 12 9 0 2 3 3 3 6 3 3 2 1 0 2 4 3 2 2 3 3 3 3 3 3 3 4 7 7 4 3 4 5 11 7 6 3 3 6
13 13 14 14 15 16 10 8 10 13 7 2 2 1 2 4 5 3 7 10 6 2 1 2 2 2 3 4 2 2 3 3 3 3 1 4 3 3 6 2 2 7 1 3 4 6 5
Wind_Direction
19 19 18 17 16 14 15 15 12 9 5 1 359 354 347 341 334 326 318 312 308 306 308 315 314 313 267 229 67 102 104 134 143 141 136 128 125 137 136 155 158 220 183 213 257 235 257
17 15 14 12 11 11 11 10 10 8 5 1 358 354 347 340 334 327 317 309 300 298 303 312 317 312 312 94 70 152 136 146 152 140 144 164 142 148 102 136 205 309 254 248 260 279 226
15 13 11 8 8 7 6 7 7 5 4 1 358 352 347 340 334 327 317 309 301 295 294 305 328 348 15 84 163 171 179 172 161 165 117 180 160 263 142 146 340 77 266 243 203 272 242
12 10 8 6 6 5 3 2 2 1 0 358 356 349 344 341 333 325 315 307 291 284 285 287 317 304 262 206 168 215 174 182 164 215 24 99 175 79 285 28 80 100 125 229 123 279 41
9 8 6 5 3 2 1 360 359 357 356 354 352 347 342 339 334 325 321 316 272 219 213 170 211 342 47 265 235 106 196 128 126 99 155 66 117 53 149 114 141 44 128 120 136 62 35
8 5 3 2 1 359 358 357 355 354 352 350 348 343 339 336 333 324 324 6 113 130 137 195 242 237 255 331 302 153 169 238 118 123 111 150 59 180 136 212 209 170 165 171 273 167 357
4 2 0 358 357 356 355 354 352 350 349 346 343 340 337 333 329 323 293 221 277 151 179 247 280 277 288 293 279 187 156 140 110 89 194 64 239 240 250 205 208 178 199 251 264 346 83
360 359 356 354 354 351 351 351 350 347 345 342 340 338 334 331 326 326 221 118 139 8 305 243 254 260 261 260 299 267 165 175 152 179 147 202 261 288 181 164 189 191 206 237 270 104 102
357 355 351 349 350 350 349 348 347 343 342 339 337 338 333 330 321 246 323 171 121 139 300 298 223 236 206 175 185 255 169 131 147 148 201 239 353 186 260 159 178 211 236 222 261 127 99
355 352 348 349 352 353 350 350 347 341 339 336 335 338 335 328 264 343 158 105 297 200 352 274 227 214 155 186 90 16 176 130 135 43 149 41 339 107 127 109 190 178 204 215 209 203 181
351 350 349 354 354 353 352 349 347 340 336 335 332 336 334 321 334 185 95 337 130 211 161 145 183 100 104 175 125 60 22 122 51 55 257 64 37 58 66 4 256 79 26 66 77 99 205
348 351 353 354 354 352 349 347 345 341 336 333 332 332 334 144 236 287 336 125 221 243 231 151 163 165 144 60 62 54 49 44 59 88 33 42 312 27 12 68 35 141 88 61 68 127 235
347 351 352 354 354 352 348 346 343 341 336 332 332 327 309 271 35 341 320 88 184 226 352 144 173 174 179 100 71 41 48 37 30 183 32 354 40 3 22 216 83 150 150 276 238 219 320
349 350 343 353 353 353 347 345 343 341 337 331 331 321 185 261 313 338 83 81 220 236 237 80 88 110 148 133 75 86 107 100 58 40 95 9 185 9 354 28 353 40 273 265 280 255 144
334 347 343 349 348 345 348 343 344 341 337 333 324 334 278 328 269 254 91 160 239 218 309 309 131 122 110 118 130 119 68 115 49 32 115 169 176 7 40 18 306 135 203 46 114 106 223
336 345 342 340 345 344 344 344 345 343 337 336 323 323 11 335 121 70 102 227 251 240 322 317 140 203 149 124 133 133 151 113 116 28 257 151 250 34 339 260 64 352 117 205 166 209 240
340 338 340 335 342 342 344 342 343 348 340 332 327 18 6 342 282 67 178 234 273 257 235 257 157 121 90 110 95 101 127 88 21 73 88 125 290 106 285 23 342 245 152 65 83 329 273
341 337 334 336 340 343 344 344 343 352 346 37 339 344 12 327 71 3 177 208 288 289 57 117 97 91 95 83 94 117 137 48 359 17 58 35 89 311 62 19 9 48 56 30 253 183 51
338 338 337 339 341 342 343 345 342 352 5 325 348 295 337 281 148 318 314 276 256 312 18 58 103 45 52 108 114 104 101 32 14 70 133 167 57 129 97 179 151 50 39 86 89 50 197
336 338 340 340 341 342 343 344 343 349 357 338 332 327 334 48 35 58 1 307 260 77 88 55 105 118 111 91 33 136 132 40 49 83 85 97 111 247 260 52 356 203 342 53 275 211 194
338 339 341 340 340 343 344 344 346 349 352 316 3 51 35 341 64 13 241 293 289 218 68 39 92 90 137 123 105 128 133 140 83 105 68 60 132 181 163 328 232 313 311 318 244 47 252
338 336 337 338 339 342 346 348 349 352 346 67 353 342 359 286 289 287 170 201 267 158 326 97 131 115 104 143 175 185 152 193 169 103 82 44 136 170 189 142 342 232 136 99 94 115 105
333 336 332 335 338 341 347 351 351 1 352 37 60 160 282 312 305 267 181 292 42 151 53 26 133 115 103 103 100 83 77 80 101 157 124 113 144 153 226 60 270 246 203 180 133 177 166
331 330 333 335 338 338 344 352 357 6 54 334 3 298 291 284 274 300 306 283 273 160 148 59 45 97 99 110 109 86 62 75 74 57 38 138 122 81 153 196 234 76 327 232 243 165 186
330 330 333 329 334 334 339 348 354 351 46 358 232 273 290 284 297 279 316 304 120 79 86 86 47 42 129 79 100 112 96 155 82 39 58 349 131 117 206 210 327 193 188 174 188 199 198
328 333 333 330 326 329 334 344 344 345 353 28 271 244 254 294 217 312 305 325 210 113 116 102 91 104 75 75 127 206 204 167 161 137 80 93 73 128 163 204 246 87 158 157 158 258 184
322 321 322 329 324 322 328 333 338 333 341 88 294 227 250 263 263 267 275 313 173 100 103 141 143 122 347 117 166 202 205 208 174 184 169 158 117 197 158 225 265 153 144 160 232 45 162
313 319 319 320 324 311 320 326 332 324 338 91 309 216 278 263 279 238 276 284 221 152 172 122 158 150 117 146 195 173 214 170 202 145 185 179 172 177 153 199 241 151 145 214 82 93 147
304 310 318 315 318 321 284 314 322 320 337 153 283 73 310 247 291 294 269 273 260 294 208 162 7 149 136 113 173 139 176 183 180 207 195 205 204 173 195 202 92 169 91 91 129 139 148